Location: Newark
(7.0858°N, 171.3717°E)
Time: 11:17:41
(UTC+00:00)

Courier 1B Rocket - Visible Passes

Search period start: 20 June 2021 00:00
Search period end: 30 June 2021 00:00
Orbit: 920 x 1202 km, 28.2° (Epoch: 19 June)

Date Brightness Start Highest point End Pass type
(mag) Time Alt. Az. Time Alt. Az. Time Alt. Az.
20 Jun 7.6 08:56:52 10° N 08:57:19 10° N 08:57:46 10° N visible
20 Jun 7.0 16:37:25 13° S 16:37:25 13° S 16:38:25 10° SSE visible
21 Jun 7.5 07:53:15 10° NNW 07:55:36 12° N 07:57:54 10° NNE visible
21 Jun 7.4 09:49:07 10° N 09:50:59 11° N 09:51:44 11° NNE visible
22 Jun 7.5 08:48:07 10° N 08:49:17 10° N 08:50:27 10° NNE visible
22 Jun 7.6 10:40:09 10° NNW 10:40:38 11° NNW 10:40:38 11° NNW visible
23 Jun 7.6 07:45:46 10° NNW 07:47:32 11° N 07:49:16 10° NNE visible
23 Jun 7.2 09:39:31 10° NNW 09:42:52 14° NNE 09:43:12 14° NNE visible
24 Jun 7.3 08:38:41 10° NNW 08:41:14 12° N 08:43:44 10° NNE visible
24 Jun 7.4 10:30:48 10° NNW 10:32:05 15° NNW 10:32:05 15° NNW visible
25 Jun 7.5 07:37:19 10° NNW 07:39:29 11° N 07:41:37 10° NNE visible
25 Jun 6.9 09:30:04 10° NNW 09:34:37 19° NNE 09:34:37 19° NNE visible
26 Jun 7.1 08:29:15 10° NNW 08:33:06 15° NNE 08:36:50 10° NE visible
26 Jun 7.2 10:21:35 10° NW 10:23:32 19° NNW 10:23:32 19° NNW visible
27 Jun 7.3 07:28:12 10° NNW 07:31:26 13° N 07:34:33 10° NE visible
27 Jun 6.4 09:20:44 10° NW 09:26:06 27° NNE 09:26:06 27° NNE visible
28 Jun 6.9 08:19:51 10° NNW 08:24:52 21° NNE 08:28:41 13° ENE visible
28 Jun 6.9 10:12:30 10° NW 10:15:03 24° NW 10:15:03 24° NW visible
29 Jun 7.2 07:18:52 10° NNW 07:23:17 17° NNE 07:27:30 10° NE visible
29 Jun 5.9 09:11:29 10° NW 09:17:39 39° NNE 09:17:39 39° NNE visible
